298  
ASHW40 PHFO 220012  
RWRHI  
 
WEATHER ROUNDUP FOR HAWAII  
NATIONAL WEATHER SERVICE HONOLULU HI  
200 PM HST THU OCT 21 2021  
 
THIS IS AN AUTOMATED REPORT THAT HAS NOT BEEN QUALITY CONTROLLED.  
 
NOTE..."FAIR" INDICATES FEW OR NO CLOUDS BELOW 12,000 FEET WITH NO  
SIGNIFICANT WEATHER AND/OR S TO VISIBILITY
.  
 
* - THESE SITES REPORT LIMITED FIELDS  
# - BUOY DATA PROVIDED BY PACIFIC ISLANDS OCEAN OBSERVING SYSTEM.  
 
HIZ001-003-004-029>031-220100-  
KAUAI-NIIHAU-  
 
CITY SKY/WX TMP DP RH WIND PRES REMARKS
 
LIHUE APT FAIR 81 68 64 NE15 30.03F  
PORT ALLEN* N/A 86 N/A N/A E17G25 N/A  
POIPU* N/A 82 N/A N/A NE8G21 N/A  
PRINCEVILLE* N/A 79 N/A N/A NE7G14 N/A  
KOKOLE POINT* NOT AVBL  
MOLOAA DAIRY* N/A 84 68 58 NE1G8 N/A  
WAIMEA HTS* NOT AVBL  
PUU OPAE* NOT AVBL  
PUU LUA* NOT AVBL  
MAKAHA RIDGE* NOT AVBL  

 
 
HIZ006-007-009>011-032>036-220100-  
OAHU-  
 
CITY SKY/WX TMP DP RH WIND PRES REMARKS
 
HONOLULU CLOUDY 85 65 51 NE8 29.99F  
KALAELOA LGT RAIN 81 69 67 S7 30.01F  
KANEOHE MCB CLOUDY 79 71 76 NE12 29.99F  
WHEELER FIELD CLOUDY 78 66 66 NE7 30.02F  
BELLOWS* NOT AVBL  
KAHUKU* NOT AVBL  
WHEELER* NOT AVBL  
WAIANAE HARBOR NOT AVBL  
DILLINGHAM* N/A 81 70 69 N3G12 N/A  
KAHUKU TRN* N/A 77 70 78 E6G14 N/A  
KAWAILOA* NOT AVBL  
KII* N/A 79 72 78 NE12 N/A  
MAKUA RANGE* N/A 84 68 58 E13G23 N/A  
OAHU FOREST NW NOT AVBL  
SCHOFIELD BRK* N/A 81 66 61 N6 N/A  
SCHOFIELD S* NOT AVBL  
WAIANAE VLY* NOT AVBL  
KUAOKALA* NOT AVBL  
HONOULIUULI* NOT AVBL  
MOKUOLOE IS* NOT AVBL  
PALEHUA* NOT AVBL  
WAIAWA PHB* NOT AVBL  

 
 
HIZ037>041-220100-  
MOLOKAI-  
 
CITY SKY/WX TMP DP RH WIND PRES REMARKS
 
MOLOKAI AIRPT PTSUNNY 81 65 58 NE15 30.01F  
KALAUPAPA NOT AVBL  
MAKAPULAPAI* NOT AVBL  
MOLOKAI 1* NOT AVBL  
PUU ALII* NOT AVBL  

 
 
HIZ015-042>044-220100-  
LANAI-  
 
CITY SKY/WX TMP DP RH WIND PRES REMARKS
 
LANAI CITY CLOUDY 78 68 71 S9 30.05F  
LANAI 1* NOT AVBL  

 
 
HIZ016-220100-  
KAHOOLAWE-  
 
CITY SKY/WX TMP DP RH WIND PRES REMARKS
 
KAHOOLAWE* NOT AVBL  
HAKIOAWA* NOT AVBL  
HONOKANAIA* NOT AVBL  
KANELOA* N/A 79 66 65 E17G23 30.08F  
KEALIALALO* NOT AVBL  
LUA MAKIKA* NOT AVBL  

 
 
HIZ017-018-022-045>050-220100-  
MAUI-  
 
CITY SKY/WX TMP DP RH WIND PRES REMARKS
 
KAHULUI FAIR 85 68 56 NE23 29.98F  
KAPALUA-W MAUI NOT AVBL  
HANA AIRPORT NOT AVBL  
HANA* N/A 79 N/A N/A E7G13 N/A  
HALEAKALA SUMM N/A 52 27 37 NE16 N/A VSB 0  
MAALAEA BAY* NOT AVBL  
HALEAKALA* NOT AVBL  
KAUPO GAP* NOT AVBL  
KULA 1* NOT AVBL  

 
 
HIZ023-026-051>054-220100-  
BIG ISLAND OF HAWAII COAST AND LOWER SLOPES-  
 
CITY SKY/WX TMP DP RH WIND PRES REMARKS
 
KAILUA KONA PTSUNNY 81 68 64 SW10 29.97F  
HILO FAIR 82 65 56 N8 30.02F  
HONOKAA* NOT AVBL  
KAWAIHAE MWT* NOT AVBL  
KAWAIHAE* N/A 77 N/A N/A W6 N/A  
SOUTH POINT* N/A 77 N/A N/A E16G25 N/A  
UPOLU AIRPORT* N/A 81 N/A N/A NE16G25 N/A  
KAMUELA* NOT AVBL  
HAKALAU* N/A 65 49 56 NE3G10 N/A  
KALOKO-HONOKO* NOT AVBL  
PALI 2* N/A 79 50 36 N18G26 N/A  
KEALAKOMO* N/A 82 64 54 E22G31 N/A  
KAUPULEHU* NOT AVBL  
KAPAPALA* N/A 77 61 58 E3G13 N/A  
LOWER KAHUKU* NOT AVBL  
PUHE CS* NOT AVBL  
PUHO CS* NOT AVBL  
PTA KEAMUKU* NOT AVBL  
WAIKOLOA* NOT AVBL  

 
 
HIZ027-028-220100-  
BIG ISLAND OF HAWAII INTERIOR AND SUMMMITS-  
 
CITY SKY/WX TMP DP RH WIND PRES REMARKS
 
BRADSHAW FIELD FAIR 68 54 60 W12G18 30.29F  
MK VISITOR CEN N/A 59 36 41 S10 N/A  
MAUNA KEA* N/A 45 1 16 NE8 N/A  
MAUNA LOA* NOT AVBL  
MAUNA LOA 1* NOT AVBL  
PTA KIPUKA* N/A 64 54 68 N7G18 N/A  
PTA RANGE 17* N/A 66 55 68 W14G22 N/A  
PTA WEST* N/A 66 55 68 NW16G26 N/A  
NENE CABIN* NOT AVBL  
AHUMOA* NOT AVBL  
PTA PORTABLE* NOT AVBL  
PUU MALI* N/A 64 37 36 E22G36 N/A  

 
 
HIC003-220100-  
NORTHWEST ISLANDS-  
 
CITY SKY/WX TMP DP RH WIND PRES REMARKS
 
MIDWAY ISLAND MOSUNNY 84 72 65 E15 30.23F HAZE  
MIDWAY NOS* NOT AVBL  
FRENCH FRIGATE NOT AVBL  

 
 
PHZ110>124-180-220100-  
BUOY REPORTS  
 
STATION/POSITION TIME TEMP WIND PRES WAVE SWELL
 
AIR SEA DIR/SP/G HT/PER HT/DIR  
(UTC) (F) (DEG/KT/KT) (MB) (FT/S) (FT/D)  
BUOY 51101 2350 77 79 70/ 10/ 14 1018.2F 6/13 5  
BUOY 51100 NOT AVBL  
BUOY 51002 2350 78 80 70/ 16/ 17 1014.8F 7/13 5/340  
BUOY 51003 2350 78 81 50/ 14/ 16 1015.5F 6/13 5/290  
BUOY 51004 2350 76 78 60/ 14/ 16 1013.6F 7/14 7/340  
WAIMEA BAY# 2357 79 N/A 5/12 3/330  
MOKAPU POINT# NOT AVBL  
LANAI# NOT AVBL  
BARBERS PT# 2356 81 N/A 4/13 3/200  
PAUWELA# NOT AVBL  
HILO# NOT AVBL  
KANEOHE BAY# 2356 79 N/A 6/12 5/350  
KANEOHE BAY 2# NOT AVBL  
HANALEI# 2256 79 N/A 6/11 3/340  
KAHULUI HARBOR 2330 77 79 20/ 14/ 16 1016.3F  
HONOLULU HARBOR 2330 80 80 80/ 3/ 11 1016.3F  
PEARL HARBOR# 2330 79 N/A 2/13 2/160  
KILO NALU NOT AVBL  
HILO HARBOR 2330 78 80 60/ 4/ 6 1015.6F  
MOKUOLOE 2336 78 79 70/ 5/ 8 1016.5F  
NAWILIWILI 2330 78 85 40/ 12/ 17 1017.3F  
WHOTS BUOY NOT AVBL  
BUOY 51028 NOT AVBL  

 
   
.....................KEY.....................................
 
 
SKY/WX - SKY CONDITIONS/PRESENT WEATHER  
TMP - TEMPERATURE IN FAHRENHEIT  
DWPT - DEWPOINT IN FAHRENHEIT  
RH - RELATIVE HUMIDITY IN PERCENT  
WIND - DIRECTION AND SPEED /MPH FOR ISLANDS...KTS FOR BUOYS/  
PRES - MEAN SEA LEVEL PRESSURE IN INCHES OF HG  
VSB - VISIBILITY IN MILES  
HX - HEAT INDEX  
WCI - WIND CHILL INDEX  
VRB - VARIABLE WIND DIRECTION  
N/A - NOT AVAILABLE  
 
 
CLICK HERE TO GO TO PREVIOUS BULLETINS.

The Nexlab HI Page Main Text Page